www.pogodaiklimat.ru

Погода и климат >> Архив погоды >> Индонезия >> Танджунгпандан


ПОГОДА в Танджунгпандане

  • Прогноз погоды в Танджунгпандане
  • Монитор погоды в Танджунгпандане

АРХИВ ПОГОДЫ в Танджунгпандане

Время (UTC), дата Ветер
(напр.,м/с)
 
Видим.   Явления Облачность Т
(С)
Тd
(С)
f
(%)
Тe
(С)
Тes
(С)
Комфортность P
(гПа)
Po
(гПа)
Тmin
(С)
Tmax
(С)
R
(мм)
R24
(мм)
S
(см)
00 18.06 ЮВ 3 8000 м 9/4 600 м
[Cu med, cong Ac trans Ci sp]
+26.7 +24.3 87 +37 +38 очень
душно
1011.1 1004.7 +25.5
03 18.06 ЮВ 4 8000 м 9/5 600 м
[Cb cap Ac trans Ci sp]
+29.8 +24.0 71 +41 +44 опасность
перегрева
1011.1 1004.8
06 18.06 ЮВ 4 9000 м 9/5 600 м
[Cb cap Ac trans Ci sp]
+31.4 +23.0 61 +42 +45 опасность
перегрева
1009.7 1003.4
09 18.06 ЮВ 4 9000 м 9/5 600 м
[Cu med, cong Ac trans Ci sp]
+30.2 +23.5 67 +41 +42 опасность
перегрева
1008.5 1002.6
12 18.06 штиль 0 8000 м 8/3 600 м
[Cu med, cong Ac trans Ci sp]
+27.4 +24.8 86 +39 +39 очень
душно
1010.2 1004.2 +33.2
15 18.06 штиль 0 7000 м 8/3 600 м
[Cu med, cong Ac trans Ci sp]
+26.0 +24.3 90 +36 +36 очень
душно
1011.6 1005.3
18 18.06 С 3 7000 м 9/4 600 м
[Cu med, cong Ac trans Ci sp]
+25.4 +24.2 93 +35 +35 очень
душно
1011.0 1004.7
21 18.06 В 2 6000 м слаб. дождь 9/5 500 м
[Cb cap Ac trans Ci sp]
+24.4 +23.4 94 +33 +33 очень
душно
1010.4 1004.2 0.2
00 19.06 В 3 6000 м слаб. дождь 9/5 500 м
[Cb cap Ac trans Ci sp]
+24.0 +23.2 95 +32 +32 очень
душно
1010.1 1003.7 +23.4 2 2
03 19.06 штиль 0 9000 м {дождь} 9/5 600 м
[Cb cap Ac trans Ci sp]
+26.2 +23.1 83 +35 +41 очень
душно
1011.6 1005.3 0.0
06 19.06 0 {дождь} н/о +23.4 1010.2 1003.9 0.0
09 19.06 ЮВ 3 9000 м 9/5 600 м
[Cb cap Ac trans Ci sp]
+29.8 +23.7 70 +41 +42 опасность
перегрева
1008.2 1001.9
12 19.06 Ю 2 7000 м 9/5 600 м
[Cb cap Ac trans Ci sp]
+27.0 +23.9 83 +37 +37 очень
душно
1010.1 1003.8 +31.3
15 19.06 штиль 0 8000 м 9/3 600 м
[Cu med, cong Ac trans Ci sp]
+25.8 +23.7 88 +35 +35 очень
душно
1011.5 1005.5
18 19.06 ЮВ 2 8000 м 9/3 600 м
[Cu med, cong Ac trans Ci sp]
+25.3 +23.6 90 +34 +34 очень
душно
1010.2 1004.1
21 19.06 ЮВ 2 8000 м 9/4 600 м
[Cu med, cong Ac trans Ci sp]
+25.2 +23.7 91 +34 +34 очень
душно
1009.8 1003.7
00 20.06 штиль 0 9000 м 9/4 600 м
[Cu med, cong Ac trans Ci sp]
+25.6 +23.9 90 +35 +36 очень
душно
1011.3 1004.9 +23.6 0.0
03 20.06 ЮВ 4 8000 м в посл. час дождь 10/5 500 м
[Cb cap Ac trans Ci sp]
+28.2 +25.6 86 +42 +44 опасность
перегрева
1011.2 1004.9 0.5
06 20.06 ЮВ 3 8000 м {дождь} 9/5 600 м
[Cu med, cong Ac trans Ci sp]
+31.0 +23.8 66 +43 +47 опасность
перегрева
1009.5 1003.2 0.5
09 20.06 ЮВ 3 8000 м 9/4 600 м
[Cu med, cong Ac trans Ci sp]
+30.6 +22.4 62 +40 +41 очень
душно
1008.4 1002.1
15 20.06 штиль 0 7000 м 8/3 600 м
[Cu med, cong Ac trans Ci sp]
+26.0 +23.6 87 +35 +35 очень
душно
1010.7 1004.4
18 20.06 штиль 0 7000 м 8/3 600 м
[Cu med, cong Ac trans Ci sp]
+24.8 +23.2 91 +33 +33 очень
душно
1010.2 1003.9
21 20.06 штиль 0 7000 м 8/3 600 м
[Cu med, cong Ac trans Ci sp]
+24.1 +23.0 94 +32 +32 очень
душно
1009.3 1003.0
00 21.06 Ю 3 7000 м 9/3 600 м
[Cu med, cong Ac trans Ci sp]
+25.5 +23.8 90 +35 +35 очень
душно
1010.2 1003.9 +23.4 0.5
03 21.06 ЮВ 5 8000 м 9/5 600 м
[Cu med, cong Ac trans Ci sp]
+30.4 +23.7 67 +41 +43 опасность
перегрева
1010.3 1004.0
06 21.06 ЮВ 3 8000 м 9/5 600 м
[Cu med, cong Ac trans Ci sp]
+31.9 +23.1 60 +42 +46 опасность
перегрева
1008.1 1002.4
09 21.06 ЮВ 4 9000 м 8/5 600 м
[Cu med, cong Ac trans Ci sp]
+31.4 +22.0 57 +40 +41 очень
душно
1007.6 1001.3
12 21.06 Ю 2 8000 м 8/3 600 м
[Cu med, cong Ac trans Ci sp]
+27.2 +23.0 78 +36 +36 очень
душно
1009.1 1002.8 +32.7
15 21.06 Ю 2 7000 м 8/3 600 м
[Cu med, cong Ac trans Ci sp]
+25.6 +23.2 87 +34 +34 очень
душно
1010.2 1003.9
18 21.06 ЮВ 2 7000 м 8/3 600 м
[Cu med, cong Ac trans Ci sp]
+25.2 +22.8 87 +33 +33 очень
душно
1009.3 1003.0
21 21.06 ЮВ 2 7000 м 9/4 600 м
[Cu med, cong Ac trans Ci sp]
+24.7 +22.8 89 +33 +33 очень
душно
1009.2 1002.9
00 22.06 ЮВ 2 8000 м 9/4 600 м
[Cu med, cong Ac trans Ci sp]
+25.6 +23.8 90 +35 +36 очень
душно
1009.6 1003.2 +24.2
03 22.06 Ю 4 8000 м 9/5 600 м
[Cu med, cong Ac trans Ci sp]
+30.0 +23.3 67 +40 +43 очень
душно
1009.9 1003.6
06 22.06 ЮВ 2 8000 м 9/5 600 м
[Cu med, cong Ac trans Ci sp]
+31.2 +22.9 61 +41 +46 опасность
перегрева
1008.3 1002.0
09 22.06 Ю 3 9000 м 9/5 600 м
[Cu med, cong Ac trans Ci sp]
+30.8 +22.9 63 +41 +42 опасность
перегрева
1007.4 1001.1
12 22.06 ЮВ 2 8000 м 9/3 600 м
[Cu med, cong Ac trans Ci sp]
+27.6 +23.5 78 +37 +37 очень
душно
1009.3 1003.0 +32.8
15 22.06 штиль 0 8000 м 9/3 600 м
[Cu med, cong Ac trans Ci sp]
+25.6 +24.3 93 +36 +36 очень
душно
1010.6 1004.3
18 22.06 штиль 0 6000 м 9/4 600 м
[Cu med, cong Ac trans Ci sp]
+25.0 +23.2 90 +33 +33 очень
душно
1009.6 1003.3
21 22.06 штиль 0 6000 м 9/4 600 м
[Cu med, cong Ac trans Ci sp]
+23.8 +22.7 94 +31 +31 очень
душно
1009.5 1003.2
00 23.06 штиль 0 7000 м 9/4 600 м
[Cu med, cong Ac trans Ci sp]
+24.5 +23.7 95 +33 +34 очень
душно
1011.3 1004.9 +23.6
03 23.06 В 4 9000 м 9/4 600 м
[Cu med, cong Ac trans Ci sp]
+30.5 +23.2 65 +41 +44 опасность
перегрева
1010.4 1004.1
06 23.06 Ю 3 9000 м 9/5 600 м
[Cb cap Ac trans Ci sp]
+32.2 +23.1 59 +43 +47 опасность
перегрева
1008.9 1002.6
09 23.06 Ю 5 8000 м 9/6 600 м
[Cb cap Ac trans Ci sp]
+30.6 +24.3 69 +43 +43 опасность
перегрева
1008.3 1002.0
12 23.06 Ю 3 8000 м 9/3 600 м
[Cu med, cong Ac trans Ci sp]
+27.8 +24.3 81 +39 +39 очень
душно
1009.5 1003.6 +32.8
15 23.06 ЮВ 2 7000 м 9/3 600 м
[Cu med, cong Ac trans Ci sp]
+26.2 +23.2 84 +35 +35 очень
душно
1011.3 1005.0
18 23.06 Ю 2 7000 м 9/3 600 м
[Cu med, cong Ac trans Ci sp]
+25.2 +23.1 88 +34 +34 очень
душно
1010.5 1004.2
21 23.06 Ю 1 7000 м 9/3 600 м
[Cu med, cong Ac trans Ci sp]
+24.8 +23.2 91 +33 +33 очень
душно
1010.2 1003.9
00 24.06 Ю 2 7000 м 9/4 600 м
[Cu med, cong Ac trans Ci sp]
+24.0 +22.9 94 +32 +32 очень
душно
1011.5 1005.2 +23.6
03 24.06 ЮВ 6 8000 м 9/5 600 м
[Cu med, cong Ac trans Ci sp]
+30.4 +24.2 70 +42 +44 опасность
перегрева
1011.8 1005.5
06 24.06 ЮВ 4 8000 м 9/4 600 м
[Cu med, cong Ac trans Ci sp]
+31.6 +21.9 56 +40 +44 очень
душно
1010.2 1003.9
09 24.06 ЮВ 3 8000 м 9/4 600 м
[Cu med, cong Ac trans Ci sp]
+30.5 +22.4 62 +40 +41 очень
душно
1009.6 1003.3
12 24.06 ЮВ 3 7000 м 9/3 600 м
[Cu med, cong Ac trans Ci sp]
+26.8 +22.8 79 +36 +36 очень
душно
1011.2 1004.8 +32.6
15 24.06 ЮВ 3 7000 м 9/3 600 м
[Cu med, cong Ac trans Ci sp]
+25.4 +22.8 86 +34 +34 очень
душно
1012.5 1006.5
18 24.06 ЮВ 2 7000 м 9/3 600 м
[Cu med, cong Ac trans Ci sp]
+25.1 +22.8 87 +33 +33 очень
душно
1011.5 1005.6

 

Местоположение метеостанции Танджунгпандан (Индонезия): широта -2.75 долгота 107.75 высота над уровнем моря 44 м.

В архиве по умолчанию представлена погода в Танджунгпандане за последнюю неделю. Архивные данные за месяц целиком и за предыдущие месяцы, начиная с января 2011 года, Вы можете получить, выбрав интересующий диапазон дат из раскрывающегося списка и нажав кнопку "Ввод!".


*Определитесь, кто Вы:
робот инопланетянин человек

Внимание! Время в таблицах - всемирное. Для получения местного времени необходимо прибавить поправку, которая равна 7 ч.

Смотрите также архив погоды в соседних городах и на ближайших метеорологических станциях:

Погода в Панкалпинанге (Индонезия) (191 км)
Погода в Кетапанге (Индонезия) (265 км)
Погода в Палембанге (Индонезия) (339 км)
Погода в Понтианаке (Индонезия) (342 км)
Погода в Джакарта порту (Индонезия) (385 км)
Погода в Танджунгкаранге (Индонезия) (387 км)
Погода в Аэропорту Сукарно-Хатта (Индонезия) (394 км)
Погода в Джакарте (Индонезия) (395 км)
Погода в Чуруге (Индонезия) (406 км)
Погода в Серанге (Индонезия) (416 км)

Пояснения к столбцам:

Ветер - указаны скорость ветра в м/с - средняя за 10 мин, порывы в срок и между сроками (в фигурных скобках) и направление, откуда дует ветер: С - северный, СВ - северо-восточный, В - восточный, ЮВ - юго-восточный, Ю - южный, ЮЗ - юго-западный, З - западный, СЗ - северо-западный.
Видимость - горизонтальная дальность видимости в метрах или километрах. При видимости от 1 до 10 км при отсутствии осадков обычно наблюдается дымка, при ухудшении видимости до 1 км и менее - туман. В сухую погоду видимость может ухудшаться дымом, пылью или мглою.
Явления - указаны атмосферные явления, наблюдавшиеся в срок или в последний час перед сроком; фигурными скобками обозначены явления, наблюдавшиеся между сроками (за 1-3 часа до срока); квадратными скобками обозначены град или гололедные отложения с указанием их диаметра в мм.
Облачность - указаны через наклонную черту общая и нижняя облачность в баллах и высота нижней границы облаков в метрах; квадратными скобками обозначены формы облаков: Ci - перистые, Cs - перисто-слоистые, Cc - перисто-кучевые, Ac - высококучевые, As - высокослоистые, Sc - слоисто-кучевые, Ns - слоисто-дождевые, Cu - кучевые, Cb - кучево-дождевые. Подробнее классификацию облаков см. в Атласе облаков (PDF).
T - Температура воздуха - температура, измеренная на высоте 2 м над землей.
Td - Температура точки росы - температура, при понижении до которой содержащийся в воздухе водяной пар достигнет насыщения.
f - Относительная влажность воздуха - влажноcть воздуха, измеренная на высоте 2 м над землей.
Te - Эффективная температура - температура, которую ощущает одетый по сезону человек в тени. Характеристика душности погоды. При расчете учитывается влияние влажности воздуха и скорости ветра на теплоощущения человека.
Tes - Эффективная температура на солнце - температура, которую ощущает человек, с поправкой на солнечный нагрев. Характеристика знойности погоды. Зависит от высоты солнца над горизонтом, облачности и скорости ветра. Ночью, в пасмурную погоду, а также при ветре 12 м/с и более поправка равна нулю.
P - Атмосферное давление - приведенное к уровню моря атмосферное давление.
Po - Атмосферное давление - измеренное на уровне метеостанции атмосферное давление.
Tmin - Минимальная температура - минимум температуры воздуха на высоте 2 м над землей.
Tmax - Максимальная температура - максимум температуры воздуха на высоте 2 м над землей.
R - Количество осадков - Количество выпавших осадков за период времени, мм. При наведении курсора мыши на число - период времени, за который выпало указанное количество осадков.
R24 - Количество осадков - Количество выпавших осадков за 24 часа, мм.
S - Снежный покров - Высота снежного покрова, см. При наведении курсора мыши на число - состояние снежного покрова и степень покрытия местности в баллах.